CZ-6A DEB, 61317

Orbit data source: Space-Track

CZ-6A DEB, 61317 is space debris in LEO originally from a launch on Tue, 06 Aug 2024 UTC launched from the Taiyaun Space Center, China (TSC). Debris objects in space refer to the collection of defunct objects orbiting the Earth. Examples of debris include non-operational satellites, rocket bodies, and fragments generated from explosions, collisions, or faulty payload assembly.

Loading next visibility...
Identifier
61317, 2024-140UE
Orbit
LEO
Country
Flag of CNCN / PRC
Related business
Manufacturer
SAST
Mission
Spacecraft
Bus & Motor
Unknown
Mass
Unknown
Launch date (UTC)
2024-08-06 (2 years ago)
Launch vehicle
Unknown
Launch site
Taiyaun Space Center, China (TSC)
Object type
Payload
Rocket body
Debris
Shape & HBR
Unknown shape, 0.1 m
Radar Cross Section
Medium (>0.1 m² and <1 m²)

Expand to show TLE details & history
Last TLE update: 19 hours ago

TLE from 19 hours ago
0 CZ-6A DEB
1 61317U 24140UE  26171.18757328  .00001315  00000-0  81510-3 0  9995
2 61317  88.7086 254.2968 0127946 242.3993 116.4146 14.00686928 92406
Epoch: 2026-06-20T04:30Z
TLE epoch observation values (Epoch: 2026-06-20T04:30:06.331Z)
Latitude
-0.00003°
Longitude
-81.63537°
Altitude
936.774 km
Speed
7.362 km/s
True Right ascension
16h 57m 11s
True Declination
0° 00' 00"
Sunlit
Object was in full shadow at epoch
Visualization orbit readout
Latitude
Unknown
Longitude
Unknown
Altitude
Unknown
Speed
Unknown
Apparent Right ascension
Unknown
Apparent Declination
Unknown
Sunlit
N/A
Visualization observer readout
Local Sidereal Time
10:18:04
Azimuth
Unknown
Elevation
Unknown
Doppler factor
Unknown
Orbital elements
Apogee altitude
981.37 km
Perigee altitude
795.425 km
Semi-major axis
7,266.535 km
Eccentricity
0.01279
Inclination
88.7086°
RAAN
254.2968°
Arg. of periapsis
242.3993°
True anomaly
117.71829°
Mean anomaly
116.4146°
Eccentric anomaly
117.06738°
Mean motion
3.5039 °/min
Orbital period
102.74 mins
BSTAR
0.0008151
Loading maneuver chart data...
Computing Atmospheric mass density...
Loading historical data...
Loading historical data...
Loading historical data...
Loading historical data...
Loading historical data...
Loading historical data...
Loading historical data...

Documentation

Showing up to 5 results
|